Time,TemperatureF,DewpointF,PressureIn,WindDirection,WindDirectionDegrees,WindSpeedMPH,WindSpeedGustMPH,Humidity,HourlyPrecipIn,Conditions,Clouds,dailyrainin,SolarRadiationWatts/m^2,SoftwareType,DateUTC
2013-02-26 00:00:00,37.8,36.5,29.92,East,99,14.0,21.0,95,0.00,RA,,0.00,0.0,WeatherDisplay:10.37,2013-02-26 05:00:00,
2013-02-26 00:05:00,37.8,36.5,29.93,ESE,105,15.0,15.0,95,0.00,RA,,0.00,0.0,WeatherDisplay:10.37,2013-02-26 05:05:00,
2013-02-26 00:10:00,37.8,36.5,29.92,East,91,19.0,19.0,95,0.00,CLR,,0.00,0.0,WeatherDisplay:10.37,2013-02-26 05:10:00,
2013-02-26 00:15:00,37.8,36.5,29.93,East,86,13.0,13.0,95,0.00,CLR,,0.00,0.0,WeatherDisplay:10.37,2013-02-26 05:15:00,
2013-02-26 00:20:00,37.8,36.5,29.92,ESE,108,16.1,16.1,95,0.00,CLR,,0.00,0.0,WeatherDisplay:10.37,2013-02-26 05:20:00,
2013-02-26 00:25:00,37.7,36.4,29.92,East,96,19.6,19.6,95,0.00,RA,,0.01,0.0,WeatherDisplay:10.37,2013-02-26 05:25:00,
2013-02-26 00:30:00,37.7,36.4,29.93,ESE,105,12.7,12.7,95,0.00,RA,,0.01,0.0,WeatherDisplay:10.37,2013-02-26 05:30:00,
2013-02-26 00:35:00,37.7,36.4,29.92,ESE,104,16.0,16.0,95,0.00,CLR,,0.01,0.0,WeatherDisplay:10.37,2013-02-26 05:35:00,
2013-02-26 00:40:00,37.6,36.3,29.91,East,86,23.0,23.0,95,0.01,RA,,0.02,0.0,WeatherDisplay:10.37,2013-02-26 05:40:00,
2013-02-26 00:45:00,37.5,36.2,29.91,ESE,107,13.8,13.8,95,0.04,RA,,0.05,0.0,WeatherDisplay:10.37,2013-02-26 05:45:00,
2013-02-26 00:50:00,37.4,36.1,29.90,ESE,105,19.6,19.6,95,0.06,RA,,0.07,0.0,WeatherDisplay:10.37,2013-02-26 05:50:00,
2013-02-26 00:55:00,37.4,36.1,29.90,East,89,18.4,18.4,95,0.08,RA,,0.11,0.0,WeatherDisplay:10.37,2013-02-26 05:55:00,
2013-02-26 01:00:00,37.3,36.0,29.89,ESE,111,19.6,19.6,95,0.11,RA,,0.13,0.0,WeatherDisplay:10.37,2013-02-26 06:00:00,
2013-02-26 01:05:00,37.1,35.8,29.89,East,92,17.3,17.3,95,0.17,RA,,0.17,0.0,WeatherDisplay:10.37,2013-02-26 06:05:00,
2013-02-26 01:10:00,37.1,35.8,29.89,ESE,104,21.9,21.9,95,0.19,RA,,0.19,0.0,WeatherDisplay:10.37,2013-02-26 06:10:00,
2013-02-26 01:15:00,37.0,35.7,29.89,East,92,20.0,20.0,95,0.22,RA,,0.22,0.0,WeatherDisplay:10.37,2013-02-26 06:15:00,
2013-02-26 01:20:00,37.0,35.7,29.88,ESE,108,17.3,17.3,95,0.24,RA,,0.24,0.0,WeatherDisplay:10.37,2013-02-26 06:20:00,
2013-02-26 01:25:00,36.9,35.6,29.88,ESE,105,15.0,15.0,95,0.25,RA,,0.27,0.0,WeatherDisplay:10.37,2013-02-26 06:25:00,
2013-02-26 01:30:00,36.9,35.6,29.88,ESE,113,6.9,7.2,95,0.25,RA,,0.27,0.0,WeatherDisplay:10.37,2013-02-26 06:30:00,
2013-02-26 01:35:00,36.9,35.9,29.88,East,84,21.9,21.9,96,0.28,RA,,0.29,0.0,WeatherDisplay:10.37,2013-02-26 06:35:00,
2013-02-26 01:40:00,36.9,35.9,29.88,SE,128,11.5,11.5,96,0.27,RA,,0.29,0.0,WeatherDisplay:10.37,2013-02-26 06:40:00,
2013-02-26 01:45:00,36.8,35.8,29.90,SE,126,12.7,12.7,96,0.27,RA,,0.31,0.0,WeatherDisplay:10.37,2013-02-26 06:45:00,
2013-02-26 01:50:00,36.8,35.8,29.89,ESE,109,11.5,11.5,96,0.27,RA,,0.34,0.0,WeatherDisplay:10.37,2013-02-26 06:50:00,
2013-02-26 01:55:00,36.8,35.8,29.89,ESE,103,18.4,18.4,96,0.25,RA,,0.35,0.0,WeatherDisplay:10.37,2013-02-26 06:55:00,
2013-02-26 02:00:00,36.8,35.8,29.88,East,82,11.5,11.5,96,0.25,RA,,0.38,0.0,WeatherDisplay:10.37,2013-02-26 07:00:00,
2013-02-26 02:05:00,36.7,35.7,29.89,East,99,10.4,10.4,96,0.22,RA,,0.40,0.0,WeatherDisplay:10.37,2013-02-26 07:05:00,
2013-02-26 02:10:00,36.7,35.7,29.88,East,93,9.0,9.0,96,0.22,RA,,0.41,0.0,WeatherDisplay:10.37,2013-02-26 07:10:00,
2013-02-26 02:15:00,36.7,35.7,29.87,ENE,76,15.0,15.0,96,0.22,RA,,0.44,0.0,WeatherDisplay:10.37,2013-02-26 07:15:00,
2013-02-26 02:20:00,36.7,35.7,29.86,East,88,8.0,8.0,96,0.22,RA,,0.46,0.0,WeatherDisplay:10.37,2013-02-26 07:20:00,
2013-02-26 02:25:00,36.7,35.7,29.86,East,89,11.5,11.5,96,0.21,RA,,0.47,0.0,WeatherDisplay:10.37,2013-02-26 07:25:00,
2013-02-26 02:30:00,36.6,35.6,29.85,East,88,12.7,12.7,96,0.22,RA,,0.48,0.0,WeatherDisplay:10.37,2013-02-26 07:30:00,
2013-02-26 02:35:00,36.7,35.7,29.85,ESE,104,11.5,11.5,96,0.22,RA,,0.51,0.0,WeatherDisplay:10.37,2013-02-26 07:35:00,
2013-02-26 02:40:00,36.7,35.7,29.85,East,91,12.7,12.7,96,0.23,RA,,0.52,0.0,WeatherDisplay:10.37,2013-02-26 07:40:00,
2013-02-26 02:45:00,36.7,35.7,29.84,East,86,18.4,18.4,96,0.22,RA,,0.53,0.0,WeatherDisplay:10.37,2013-02-26 07:45:00,
2013-02-26 02:50:00,36.7,35.7,29.84,East,92,19.6,19.6,96,0.19,RA,,0.53,0.0,WeatherDisplay:10.37,2013-02-26 07:50:00,
2013-02-26 02:55:00,36.7,35.7,29.84,ESE,115,19.6,19.6,96,0.19,RA,,0.54,0.0,WeatherDisplay:10.37,2013-02-26 07:55:00,
2013-02-26 03:00:00,36.7,35.7,29.83,East,92,17.3,17.3,96,0.17,RA,,0.56,0.0,WeatherDisplay:10.37,2013-02-26 08:00:00,
2013-02-26 03:05:00,36.7,35.7,29.84,East,84,20.7,20.7,96,0.17,RA,,0.56,0.0,WeatherDisplay:10.37,2013-02-26 08:05:00,
2013-02-26 03:10:00,36.7,35.7,29.84,East,82,13.8,13.8,96,0.16,RA,,0.57,0.0,WeatherDisplay:10.37,2013-02-26 08:10:00,
2013-02-26 03:15:00,36.8,35.8,29.83,East,93,11.5,11.5,96,0.15,RA,,0.58,0.0,WeatherDisplay:10.37,2013-02-26 08:15:00,
2013-02-26 03:20:00,36.7,35.7,29.82,ENE,78,19.6,19.6,96,0.13,RA,,0.60,0.0,WeatherDisplay:10.37,2013-02-26 08:20:00,
2013-02-26 03:25:00,36.7,35.7,29.83,East,96,15.0,15.0,96,0.15,RA,,0.62,0.0,WeatherDisplay:10.37,2013-02-26 08:25:00,
2013-02-26 03:30:00,36.7,35.7,29.82,East,84,23.0,23.0,96,0.15,RA,,0.63,0.0,WeatherDisplay:10.37,2013-02-26 08:30:00,
2013-02-26 03:35:00,36.8,35.8,29.81,East,91,18.4,18.4,96,0.15,RA,,0.65,0.0,WeatherDisplay:10.37,2013-02-26 08:35:00,
2013-02-26 03:40:00,36.8,35.8,29.81,ESE,118,24.2,24.2,96,0.13,RA,,0.67,0.0,WeatherDisplay:10.37,2013-02-26 08:40:00,
2013-02-26 03:45:00,36.8,35.8,29.80,ESE,110,18.0,18.0,96,0.15,RA,,0.68,0.0,WeatherDisplay:10.37,2013-02-26 08:45:00,
2013-02-26 03:50:00,37.0,36.0,29.79,East,92,19.0,19.0,96,0.16,RA,,0.69,0.0,WeatherDisplay:10.37,2013-02-26 08:50:00,
2013-02-26 03:55:00,37.1,36.1,29.78,East,80,24.2,24.2,96,0.16,RA,,0.70,0.0,WeatherDisplay:10.37,2013-02-26 08:55:00,
2013-02-26 04:00:00,37.2,36.2,29.78,ESE,107,19.6,19.6,96,0.16,RA,,0.71,0.0,WeatherDisplay:10.37,2013-02-26 09:00:00,
2013-02-26 04:05:00,37.3,36.3,29.78,East,82,17.3,17.3,96,0.17,RA,,0.73,0.0,WeatherDisplay:10.37,2013-02-26 09:05:00,
2013-02-26 04:10:00,37.4,36.4,29.79,ENE,76,6.9,6.9,96,0.16,RA,,0.73,0.0,WeatherDisplay:10.37,2013-02-26 09:10:00,
2013-02-26 04:15:00,37.5,36.5,29.77,ENE,72,20.7,20.7,96,0.17,RA,,0.75,0.0,WeatherDisplay:10.37,2013-02-26 09:15:00,
2013-02-26 04:20:00,37.7,36.7,29.77,East,101,21.0,21.0,96,0.17,RA,,0.77,0.0,WeatherDisplay:10.37,2013-02-26 09:20:00,
2013-02-26 04:25:00,37.8,36.8,29.75,East,86,15.0,15.0,96,0.18,RA,,0.80,0.0,WeatherDisplay:10.37,2013-02-26 09:25:00,
2013-02-26 04:30:00,37.8,36.8,29.73,ESE,107,24.2,24.2,96,0.21,RA,,0.83,0.0,WeatherDisplay:10.37,2013-02-26 09:30:00,
2013-02-26 04:35:00,37.9,36.9,29.73,ESE,115,19.6,19.6,96,0.21,RA,,0.86,0.0,WeatherDisplay:10.37,2013-02-26 09:35:00,
2013-02-26 04:40:00,38.0,37.0,29.71,East,85,23.0,23.0,96,0.25,RA,,0.92,0.0,WeatherDisplay:10.37,2013-02-26 09:40:00,
2013-02-26 04:45:00,38.1,37.1,29.71,East,98,24.0,24.0,96,0.28,RA,,0.96,0.0,WeatherDisplay:10.37,2013-02-26 09:45:00,
2013-02-26 04:50:00,38.1,37.1,29.73,East,94,18.4,18.4,96,0.28,RA,,0.97,0.0,WeatherDisplay:10.37,2013-02-26 09:50:00,
2013-02-26 04:55:00,38.2,37.4,29.73,East,101,23.0,23.0,97,0.28,RA,,0.98,0.0,WeatherDisplay:10.37,2013-02-26 09:55:00,
2013-02-26 05:00:00,38.3,37.5,29.75,ESE,117,23.0,23.0,97,0.29,RA,,1.00,0.0,WeatherDisplay:10.37,2013-02-26 10:00:00,
2013-02-26 05:05:00,38.4,37.6,29.76,East,101,19.6,19.6,97,0.30,RA,,1.03,0.0,WeatherDisplay:10.37,2013-02-26 10:05:00,
2013-02-26 05:10:00,38.5,37.7,29.76,East,98,17.0,17.0,97,0.31,RA,,1.04,0.0,WeatherDisplay:10.37,2013-02-26 10:10:00,
2013-02-26 05:15:00,38.5,37.5,29.77,East,94,10.4,10.4,96,0.33,RA,,1.08,0.0,WeatherDisplay:10.37,2013-02-26 10:15:00,
2013-02-26 05:20:00,38.5,37.5,29.76,East,97,19.6,19.6,96,0.33,RA,,1.10,0.0,WeatherDisplay:10.37,2013-02-26 10:20:00,
2013-02-26 05:25:00,38.4,37.4,29.75,East,100,19.6,19.6,96,0.31,RA,,1.11,0.0,WeatherDisplay:10.37,2013-02-26 10:25:00,
2013-02-26 05:30:00,38.4,37.4,29.76,East,79,19.6,19.6,96,0.28,RA,,1.11,0.0,WeatherDisplay:10.37,2013-02-26 10:30:00,
2013-02-26 05:35:00,38.3,37.3,29.76,East,97,12.7,12.7,96,0.28,RA,,1.15,0.0,WeatherDisplay:10.37,2013-02-26 10:35:00,
2013-02-26 05:40:00,38.4,37.4,29.76,ESE,103,11.5,11.5,96,0.25,RA,,1.17,0.0,WeatherDisplay:10.37,2013-02-26 10:40:00,
2013-02-26 05:45:00,38.3,37.3,29.76,ENE,74,15.0,15.0,96,0.25,RA,,1.21,0.0,WeatherDisplay:10.37,2013-02-26 10:45:00,
2013-02-26 05:50:00,38.3,37.3,29.76,ESE,109,15.0,15.0,96,0.27,RA,,1.23,0.0,WeatherDisplay:10.37,2013-02-26 10:50:00,
2013-02-26 05:55:00,38.3,37.3,29.76,East,89,13.8,13.8,96,0.28,RA,,1.26,0.0,WeatherDisplay:10.37,2013-02-26 10:55:00,
2013-02-26 06:00:00,38.2,37.2,29.75,ENE,64,12.0,12.0,96,0.29,RA,,1.29,0.0,WeatherDisplay:10.37,2013-02-26 11:00:00,
2013-02-26 06:05:00,38.2,37.2,29.75,SE,125,12.7,12.7,96,0.30,RA,,1.33,0.0,WeatherDisplay:10.37,2013-02-26 11:05:00,
2013-02-26 06:10:00,38.1,37.1,29.75,ENE,62,9.2,9.2,96,0.30,RA,,1.34,0.0,WeatherDisplay:10.37,2013-02-26 11:10:00,
2013-02-26 06:15:00,38.0,37.0,29.75,East,82,5.0,5.0,96,0.28,RA,,1.36,0.0,WeatherDisplay:10.37,2013-02-26 11:15:00,
2013-02-26 06:20:00,38.0,37.0,29.75,ENE,69,13.0,13.0,96,0.27,RA,,1.37,0.0,WeatherDisplay:10.37,2013-02-26 11:20:00,
2013-02-26 06:25:00,37.9,36.9,29.75,ESE,121,7.0,7.0,96,0.28,RA,,1.39,0.0,WeatherDisplay:10.37,2013-02-26 11:25:00,
2013-02-26 06:30:00,37.9,36.9,29.75,East,96,9.2,9.2,96,0.28,RA,,1.39,0.0,WeatherDisplay:10.37,2013-02-26 11:30:00,
2013-02-26 06:35:00,37.9,36.9,29.75,East,92,8.1,8.1,96,0.25,,,1.39,0.0,WeatherDisplay:10.37,2013-02-26 11:35:00,
2013-02-26 06:40:00,37.9,36.9,29.75,ESE,109,11.5,11.5,96,0.24,RA,,1.42,0.0,WeatherDisplay:10.37,2013-02-26 11:40:00,
2013-02-26 06:45:00,37.9,36.9,29.74,East,89,13.8,13.8,96,0.22,RA,,1.43,0.0,WeatherDisplay:10.37,2013-02-26 11:45:00,
2013-02-26 06:50:00,37.9,36.9,29.75,ESE,113,6.9,6.9,96,0.23,RA,,1.46,0.0,WeatherDisplay:10.37,2013-02-26 11:50:00,
2013-02-26 06:55:00,37.9,36.9,29.75,East,94,9.2,9.2,96,0.24,RA,,1.50,0.0,WeatherDisplay:10.37,2013-02-26 11:55:00,
2013-02-26 07:00:00,37.9,37.1,29.74,NE,49,6.0,6.0,97,0.22,RA,,1.51,0.0,WeatherDisplay:10.37,2013-02-26 12:00:00,
2013-02-26 07:05:00,37.8,37.0,29.74,ENE,62,6.9,6.9,97,0.19,RA,,1.52,0.0,WeatherDisplay:10.37,2013-02-26 12:05:00,
2013-02-26 07:10:00,37.8,37.0,29.74,East,87,10.4,10.4,97,0.18,RA,,1.52,0.0,WeatherDisplay:10.37,2013-02-26 12:10:00,
2013-02-26 07:15:00,37.8,37.0,29.73,ESE,104,14.0,14.0,97,0.17,,,1.52,0.0,WeatherDisplay:10.37,2013-02-26 12:15:00,
2013-02-26 07:20:00,37.8,37.0,29.73,East,93,13.8,13.8,97,0.16,CLR,,1.52,0.0,WeatherDisplay:10.37,2013-02-26 12:20:00,
2013-02-26 07:25:00,37.9,37.1,29.74,ESE,116,12.7,12.7,97,0.13,CLR,,1.52,0.0,WeatherDisplay:10.37,2013-02-26 12:25:00,
2013-02-26 07:30:00,37.9,37.1,29.72,East,94,17.0,17.0,97,0.13,CLR,,1.52,0.0,WeatherDisplay:10.37,2013-02-26 12:30:00,
2013-02-26 07:35:00,37.9,37.1,29.72,ENE,75,12.0,12.0,97,0.13,CLR,,1.52,0.0,WeatherDisplay:10.37,2013-02-26 12:35:00,
2013-02-26 07:40:00,38.0,37.2,29.71,ENE,78,13.8,13.8,97,0.11,CLR,,1.52,0.0,WeatherDisplay:10.37,2013-02-26 12:40:00,
2013-02-26 07:45:00,38.0,37.2,29.70,ESE,111,13.0,13.0,97,0.10,CLR,,1.52,0.0,WeatherDisplay:10.37,2013-02-26 12:45:00,
2013-02-26 07:50:00,38.0,37.2,29.70,East,98,21.0,21.0,97,0.06,CLR,,1.52,0.0,WeatherDisplay:10.37,2013-02-26 12:50:00,
2013-02-26 07:55:00,38.1,37.3,29.70,ESE,105,13.8,13.8,97,0.02,CLR,,1.52,7.0,WeatherDisplay:10.37,2013-02-26 12:55:00,
2013-02-26 08:00:00,38.1,37.3,29.70,East,91,13.8,13.8,97,0.01,CLR,,1.52,9.0,WeatherDisplay:10.37,2013-02-26 13:00:00,
2013-02-26 08:05:00,38.2,37.4,29.70,East,90,16.1,16.1,97,0.00,CLR,,1.52,9.0,WeatherDisplay:10.37,2013-02-26 13:05:00,
2013-02-26 08:10:00,38.2,37.4,29.69,East,92,15.0,15.0,97,0.00,CLR,,1.52,14.0,WeatherDisplay:10.37,2013-02-26 13:10:00,
2013-02-26 08:15:00,38.2,37.4,29.68,East,89,11.5,11.5,97,0.00,CLR,,1.52,11.0,WeatherDisplay:10.37,2013-02-26 13:15:00,
2013-02-26 08:20:00,38.2,37.4,29.68,ENE,63,15.0,15.0,97,0.00,CLR,,1.52,14.0,WeatherDisplay:10.37,2013-02-26 13:20:00,
2013-02-26 08:25:00,38.3,37.5,29.67,ESE,104,13.8,13.8,97,0.00,CLR,,1.52,18.0,WeatherDisplay:10.37,2013-02-26 13:25:00,
2013-02-26 08:30:00,38.3,37.5,29.67,East,99,17.3,17.3,97,0.00,CLR,,1.52,19.0,WeatherDisplay:10.37,2013-02-26 13:30:00,
2013-02-26 08:35:00,38.3,37.5,29.67,East,81,15.0,15.0,97,0.00,CLR,,1.52,14.0,WeatherDisplay:10.37,2013-02-26 13:35:00,
2013-02-26 08:40:00,38.3,37.5,29.66,East,100,18.0,18.0,97,0.00,CLR,,1.52,19.0,WeatherDisplay:10.37,2013-02-26 13:40:00,
2013-02-26 08:45:00,38.3,37.5,29.66,ENE,67,19.6,19.6,97,0.00,CLR,,1.52,14.0,WeatherDisplay:10.37,2013-02-26 13:45:00,
2013-02-26 08:50:00,38.3,37.5,29.65,East,81,19.6,19.6,97,0.00,CLR,,1.52,19.0,WeatherDisplay:10.37,2013-02-26 13:50:00,
2013-02-26 08:55:00,38.3,37.5,29.64,ESE,103,23.0,23.0,97,0.00,CLR,,1.52,28.0,WeatherDisplay:10.37,2013-02-26 13:55:00,
2013-02-26 09:00:00,38.4,37.6,29.64,East,91,19.6,19.6,97,0.00,CLR,,1.52,26.0,WeatherDisplay:10.37,2013-02-26 14:00:00,
2013-02-26 09:05:00,38.5,37.7,29.64,East,98,17.3,17.3,97,0.00,OVC,,1.52,30.0,WeatherDisplay:10.37,2013-02-26 14:05:00,
2013-02-26 09:10:00,38.6,37.8,29.66,East,88,17.0,17.0,97,0.00,OVC,,1.52,26.0,WeatherDisplay:10.37,2013-02-26 14:10:00,
2013-02-26 09:15:00,38.7,37.9,29.68,East,86,13.8,13.8,97,0.01,RA,,1.54,19.0,WeatherDisplay:10.37,2013-02-26 14:15:00,
2013-02-26 09:20:00,38.8,38.0,29.69,NE,39,10.4,10.4,97,0.01,RA,,1.54,19.0,WeatherDisplay:10.37,2013-02-26 14:20:00,
2013-02-26 09:25:00,38.8,38.0,29.69,ESE,109,10.4,10.4,97,0.01,OVC,,1.54,32.0,WeatherDisplay:10.37,2013-02-26 14:25:00,
2013-02-26 09:30:00,38.9,38.1,29.70,East,86,3.5,3.5,97,0.01,OVC,,1.54,23.0,WeatherDisplay:10.37,2013-02-26 14:30:00,
2013-02-26 09:35:00,38.9,38.1,29.69,East,89,17.3,17.3,97,0.01,OVC,,1.54,35.0,WeatherDisplay:10.37,2013-02-26 14:35:00,
2013-02-26 09:40:00,39.1,38.3,29.70,East,96,15.0,15.0,97,0.02,RA,,1.55,26.0,WeatherDisplay:10.37,2013-02-26 14:40:00,
2013-02-26 09:45:00,39.1,38.3,29.70,East,98,11.5,11.5,97,0.02,RA,,1.55,19.0,WeatherDisplay:10.37,2013-02-26 14:45:00,
2013-02-26 09:50:00,39.1,38.3,29.68,East,89,12.7,12.7,97,0.04,RA,,1.56,83.0,WeatherDisplay:10.37,2013-02-26 14:50:00,
2013-02-26 09:55:00,39.2,38.4,29.70,SE,126,12.0,12.0,97,0.05,RA,,1.57,39.0,WeatherDisplay:10.37,2013-02-26 14:55:00,
2013-02-26 10:00:00,39.2,38.4,29.69,East,97,10.4,10.4,97,0.05,RA,,1.57,63.0,WeatherDisplay:10.37,2013-02-26 15:00:00,
2013-02-26 10:05:00,39.2,38.4,29.68,ENE,74,16.1,16.1,97,0.05,OVC,,1.57,56.0,WeatherDisplay:10.37,2013-02-26 15:05:00,
2013-02-26 10:10:00,39.2,38.4,29.69,East,101,8.1,8.1,97,0.05,OVC,,1.57,32.0,WeatherDisplay:10.37,2013-02-26 15:10:00,
2013-02-26 10:15:00,39.1,38.3,29.69,SSE,150,16.1,16.1,97,0.04,OVC,,1.57,77.0,WeatherDisplay:10.37,2013-02-26 15:15:00,
2013-02-26 10:20:00,39.1,38.3,29.68,ESE,114,15.0,15.0,97,0.04,OVC,,1.57,54.0,WeatherDisplay:10.37,2013-02-26 15:20:00,
2013-02-26 10:25:00,39.1,38.3,29.68,East,88,16.1,16.1,97,0.04,OVC,,1.57,54.0,WeatherDisplay:10.37,2013-02-26 15:25:00,
2013-02-26 10:30:00,39.1,38.3,29.67,ESE,103,11.5,11.5,97,0.05,RA,,1.59,70.0,WeatherDisplay:10.37,2013-02-26 15:30:00,
2013-02-26 10:35:00,39.2,38.4,29.67,SE,130,10.4,10.4,97,0.05,RA,,1.59,70.0,WeatherDisplay:10.37,2013-02-26 15:35:00,
2013-02-26 10:40:00,39.2,38.4,29.68,East,100,12.7,12.7,97,0.04,OVC,,1.59,62.0,WeatherDisplay:10.37,2013-02-26 15:40:00,
2013-02-26 10:45:00,39.2,38.4,29.68,East,94,9.2,9.2,97,0.04,OVC,,1.59,56.0,WeatherDisplay:10.37,2013-02-26 15:45:00,
2013-02-26 10:50:00,39.2,38.4,29.67,ESE,104,11.5,11.5,97,0.02,OVC,,1.59,62.0,WeatherDisplay:10.37,2013-02-26 15:50:00,
2013-02-26 10:55:00,39.2,38.4,29.68,ESE,110,11.5,11.5,97,0.01,OVC,,1.59,51.0,WeatherDisplay:10.37,2013-02-26 15:55:00,
2013-02-26 11:00:00,39.3,38.5,29.67,East,81,7.0,7.0,97,0.01,OVC,,1.59,74.0,WeatherDisplay:10.37,2013-02-26 16:00:00,
2013-02-26 11:05:00,39.3,38.5,29.67,East,84,12.7,12.7,97,0.01,OVC,,1.59,69.0,WeatherDisplay:10.37,2013-02-26 16:05:00,
2013-02-26 11:10:00,39.3,38.5,29.68,SSE,153,4.6,4.6,97,0.01,OVC,,1.59,47.0,WeatherDisplay:10.37,2013-02-26 16:10:00,
2013-02-26 11:15:00,39.4,38.6,29.68,East,99,6.9,6.9,97,0.01,OVC,,1.59,72.0,WeatherDisplay:10.37,2013-02-26 16:15:00,
2013-02-26 11:20:00,39.5,38.7,29.68,SE,136,9.2,9.2,97,0.01,OVC,,1.59,83.0,WeatherDisplay:10.37,2013-02-26 16:20:00,
2013-02-26 11:25:00,39.6,38.8,29.68,East,101,8.1,8.1,97,0.01,OVC,,1.59,86.0,WeatherDisplay:10.37,2013-02-26 16:25:00,
2013-02-26 11:30:00,39.6,38.8,29.68,ESE,103,8.1,8.1,97,0.00,OVC,,1.59,83.0,WeatherDisplay:10.37,2013-02-26 16:30:00,
2013-02-26 11:35:00,39.6,38.8,29.68,ENE,74,9.2,9.2,97,0.00,OVC,,1.59,79.0,WeatherDisplay:10.37,2013-02-26 16:35:00,
2013-02-26 11:40:00,39.6,38.8,29.68,East,86,6.0,6.0,97,0.00,OVC,,1.59,54.0,WeatherDisplay:10.37,2013-02-26 16:40:00,
2013-02-26 11:45:00,39.8,39.0,29.68,East,83,3.5,3.5,97,0.00,OVC,,1.59,77.0,WeatherDisplay:10.37,2013-02-26 16:45:00,
2013-02-26 11:50:00,39.9,39.1,29.68,East,86,5.0,5.0,97,0.00,OVC,,1.59,65.0,WeatherDisplay:10.37,2013-02-26 16:50:00,
2013-02-26 11:55:00,40.0,39.2,29.68,East,88,5.0,5.0,97,0.00,OVC,,1.59,72.0,WeatherDisplay:10.37,2013-02-26 16:55:00,
2013-02-26 12:00:00,40.1,39.3,29.68,ENE,63,9.2,9.2,97,0.00,OVC,,1.59,72.0,WeatherDisplay:10.37,2013-02-26 17:00:00,
2013-02-26 12:05:00,40.2,39.4,29.67,East,81,6.9,6.9,97,0.00,OVC,,1.59,86.0,WeatherDisplay:10.37,2013-02-26 17:05:00,
2013-02-26 12:10:00,40.2,39.4,29.67,ENE,78,11.5,11.5,97,0.00,OVC,,1.59,58.0,WeatherDisplay:10.37,2013-02-26 17:10:00,
2013-02-26 12:15:00,40.4,39.6,29.67,East,83,10.4,10.4,97,0.00,CLR,,1.59,84.0,WeatherDisplay:10.37,2013-02-26 17:15:00,
2013-02-26 12:20:00,40.4,39.6,29.68,ESE,114,4.6,4.6,97,0.00,CLR,,1.59,74.0,WeatherDisplay:10.37,2013-02-26 17:20:00,
2013-02-26 12:25:00,40.4,39.6,29.67,East,94,0.0,0.0,97,0.00,CLR,,1.59,77.0,WeatherDisplay:10.37,2013-02-26 17:25:00,
2013-02-26 12:30:00,40.5,39.7,29.67,East,99,3.5,3.5,97,0.00,CLR,,1.59,62.0,WeatherDisplay:10.37,2013-02-26 17:30:00,
2013-02-26 12:35:00,40.6,39.8,29.67,ESE,107,1.1,0.0,97,0.00,CLR,,1.59,102.0,WeatherDisplay:10.37,2013-02-26 17:35:00,
2013-02-26 12:40:00,40.6,39.8,29.67,ESE,107,6.9,6.9,97,0.00,CLR,,1.59,107.0,WeatherDisplay:10.37,2013-02-26 17:40:00,
2013-02-26 12:45:00,40.7,39.9,29.66,ESE,112,12.7,12.7,97,0.00,CLR,,1.59,118.0,WeatherDisplay:10.37,2013-02-26 17:45:00,
2013-02-26 12:50:00,40.9,40.1,29.66,ESE,105,10.4,10.4,97,0.00,CLR,,1.59,90.0,WeatherDisplay:10.37,2013-02-26 17:50:00,
2013-02-26 12:55:00,40.9,40.1,29.66,ESE,105,3.5,3.5,97,0.00,CLR,,1.59,104.0,WeatherDisplay:10.37,2013-02-26 17:55:00,
2013-02-26 13:00:00,41.0,40.2,29.65,East,96,6.9,6.9,97,0.00,CLR,,1.59,107.0,WeatherDisplay:10.37,2013-02-26 18:00:00,
2013-02-26 13:05:00,41.0,40.2,29.65,ESE,112,5.8,5.8,97,0.00,FEW,,1.59,88.0,WeatherDisplay:10.37,2013-02-26 18:05:00,
2013-02-26 13:10:00,41.1,40.3,29.65,East,91,6.0,6.0,97,0.00,SCT,,1.59,109.0,WeatherDisplay:10.37,2013-02-26 18:10:00,
2013-02-26 13:15:00,41.1,40.3,29.65,ESE,114,4.0,4.0,97,0.00,SCT,,1.59,100.0,WeatherDisplay:10.37,2013-02-26 18:15:00,
2013-02-26 13:20:00,41.2,40.4,29.66,ESE,114,5.0,5.0,97,0.00,SCT,,1.59,90.0,WeatherDisplay:10.37,2013-02-26 18:20:00,
2013-02-26 13:25:00,41.2,40.4,29.66,ESE,114,3.5,3.5,97,0.00,BKN,,1.59,90.0,WeatherDisplay:10.37,2013-02-26 18:25:00,
2013-02-26 13:30:00,41.3,40.5,29.66,ESE,114,0.0,0.0,97,0.00,BKN,,1.59,74.0,WeatherDisplay:10.37,2013-02-26 18:30:00,
2013-02-26 13:35:00,41.4,40.6,29.66,ESE,114,5.8,5.8,97,0.00,BKN,,1.59,76.0,WeatherDisplay:10.37,2013-02-26 18:35:00,
2013-02-26 13:40:00,41.4,40.6,29.66,ESE,114,3.5,3.5,97,0.00,BKN,,1.59,86.0,WeatherDisplay:10.37,2013-02-26 18:40:00,
2013-02-26 13:45:00,41.3,40.5,29.66,ESE,113,0.0,0.0,97,0.00,BKN,,1.59,63.0,WeatherDisplay:10.37,2013-02-26 18:45:00,
2013-02-26 13:50:00,41.4,40.6,29.66,ESE,114,0.0,0.0,97,0.00,BKN,,1.59,86.0,WeatherDisplay:10.37,2013-02-26 18:50:00,
2013-02-26 13:55:00,41.4,40.6,29.66,ESE,114,0.0,0.0,97,0.01,RA,,1.60,74.0,WeatherDisplay:10.37,2013-02-26 18:55:00,
2013-02-26 14:00:00,41.5,40.7,29.66,ESE,114,0.0,0.0,97,0.01,RA,,1.60,76.0,WeatherDisplay:10.37,2013-02-26 19:00:00,
2013-02-26 14:05:00,41.4,40.6,29.67,ESE,114,3.5,3.5,97,0.01,BKN,,1.60,84.0,WeatherDisplay:10.37,2013-02-26 19:05:00,
2013-02-26 14:10:00,41.4,40.6,29.67,ESE,114,0.0,0.0,97,0.01,BKN,,1.60,79.0,WeatherDisplay:10.37,2013-02-26 19:10:00,
2013-02-26 14:15:00,41.4,40.6,29.67,ESE,114,0.0,0.0,97,0.01,BKN,,1.60,63.0,WeatherDisplay:10.37,2013-02-26 19:15:00,
2013-02-26 14:20:00,41.4,40.6,29.67,ESE,114,3.5,3.5,97,0.01,BKN,,1.60,62.0,WeatherDisplay:10.37,2013-02-26 19:20:00,
2013-02-26 14:25:00,41.3,40.5,29.67,ESE,114,0.0,0.0,97,0.01,BKN,,1.60,72.0,WeatherDisplay:10.37,2013-02-26 19:25:00,
2013-02-26 14:30:00,41.3,40.5,29.67,ESE,114,0.0,0.0,97,0.01,BKN,,1.60,62.0,WeatherDisplay:10.37,2013-02-26 19:30:00,
2013-02-26 14:35:00,41.4,40.6,29.67,ESE,114,0.0,0.0,97,0.01,BKN,,1.60,70.0,WeatherDisplay:10.37,2013-02-26 19:35:00,
2013-02-26 14:40:00,41.4,40.6,29.66,ESE,114,3.5,3.5,97,0.01,BKN,,1.60,109.0,WeatherDisplay:10.37,2013-02-26 19:40:00,
2013-02-26 14:45:00,41.5,40.7,29.66,ESE,114,4.6,4.6,97,0.01,BKN,,1.60,100.0,WeatherDisplay:10.37,2013-02-26 19:45:00,
2013-02-26 14:50:00,41.6,40.8,29.66,ESE,113,4.6,4.6,97,0.01,BKN,,1.60,111.0,WeatherDisplay:10.37,2013-02-26 19:50:00,
2013-02-26 14:55:00,41.6,40.8,29.65,ESE,113,5.8,5.8,97,0.00,BKN,,1.60,77.0,WeatherDisplay:10.37,2013-02-26 19:55:00,
2013-02-26 15:00:00,41.6,40.8,29.65,ESE,104,5.8,5.8,97,0.00,BKN,,1.60,98.0,WeatherDisplay:10.37,2013-02-26 20:00:00,
2013-02-26 15:05:00,41.6,40.8,29.65,ESE,103,5.8,5.8,97,0.00,BKN,,1.60,95.0,WeatherDisplay:10.37,2013-02-26 20:05:00,
2013-02-26 15:10:00,41.7,40.9,29.65,ESE,103,0.0,0.0,97,0.00,BKN,,1.60,98.0,WeatherDisplay:10.37,2013-02-26 20:10:00,
2013-02-26 15:15:00,41.7,40.9,29.65,ESE,103,0.0,0.0,97,0.00,BKN,,1.60,81.0,WeatherDisplay:10.37,2013-02-26 20:15:00,
2013-02-26 15:20:00,41.9,41.1,29.65,ESE,103,2.0,0.0,97,0.00,BKN,,1.60,95.0,WeatherDisplay:10.37,2013-02-26 20:20:00,
2013-02-26 15:25:00,42.1,41.3,29.64,ESE,103,0.0,0.0,97,0.00,BKN,,1.60,88.0,WeatherDisplay:10.37,2013-02-26 20:25:00,
2013-02-26 15:30:00,42.1,41.6,29.65,ESE,103,2.0,2.0,98,0.00,BKN,,1.60,63.0,WeatherDisplay:10.37,2013-02-26 20:30:00,
2013-02-26 15:35:00,42.1,41.3,29.65,ESE,103,0.0,0.0,97,0.00,BKN,,1.60,40.0,WeatherDisplay:10.37,2013-02-26 20:35:00,
2013-02-26 15:40:00,42.0,41.2,29.65,ESE,103,0.0,0.0,97,0.00,BKN,,1.60,42.0,WeatherDisplay:10.37,2013-02-26 20:40:00,
2013-02-26 15:45:00,42.0,41.2,29.65,ESE,103,2.3,2.3,97,0.00,BKN,,1.60,53.0,WeatherDisplay:10.37,2013-02-26 20:45:00,
2013-02-26 15:50:00,42.0,41.2,29.65,ESE,103,4.0,4.0,97,0.00,BKN,,1.60,35.0,WeatherDisplay:10.37,2013-02-26 20:50:00,
2013-02-26 15:55:00,41.9,41.1,29.65,ESE,103,3.5,3.5,97,0.00,BKN,,1.60,44.0,WeatherDisplay:10.37,2013-02-26 20:55:00,
2013-02-26 16:00:00,41.8,41.0,29.65,ESE,103,0.0,0.0,97,0.00,OVC,,1.60,32.0,WeatherDisplay:10.37,2013-02-26 21:00:00,
2013-02-26 16:05:00,41.7,40.9,29.65,ESE,103,0.0,0.0,97,0.00,OVC,,1.60,30.0,WeatherDisplay:10.37,2013-02-26 21:05:00,
2013-02-26 16:10:00,41.7,40.9,29.64,ESE,103,0.0,0.0,97,0.00,OVC,,1.60,30.0,WeatherDisplay:10.37,2013-02-26 21:10:00,
2013-02-26 16:15:00,41.6,40.8,29.64,ESE,103,0.0,0.0,97,0.00,OVC,,1.60,25.0,WeatherDisplay:10.37,2013-02-26 21:15:00,
2013-02-26 16:24:00,41.6,40.8,29.64,ESE,103,0.0,0.0,97,0.00,OVC,,1.60,30.0,WeatherDisplay:10.37,2013-02-26 21:24:00,
2013-02-26 16:29:00,41.6,40.8,29.65,ESE,103,0.0,0.0,97,0.00,OVC,,1.60,28.0,WeatherDisplay:10.37,2013-02-26 21:29:00,
2013-02-26 16:34:00,41.7,40.9,29.65,ESE,103,0.0,0.0,97,0.00,OVC,,1.60,30.0,WeatherDisplay:10.37,2013-02-26 21:34:00,
2013-02-26 16:39:00,41.7,40.9,29.65,ESE,103,0.0,0.0,97,0.00,OVC,,1.60,23.0,WeatherDisplay:10.37,2013-02-26 21:39:00,
2013-02-26 16:44:00,41.7,40.9,29.65,ESE,103,0.0,0.0,97,0.00,OVC,,1.60,23.0,WeatherDisplay:10.37,2013-02-26 21:44:00,
2013-02-26 16:49:00,41.7,40.9,29.66,ESE,103,4.0,4.0,97,0.00,OVC,,1.60,18.0,WeatherDisplay:10.37,2013-02-26 21:49:00,
2013-02-26 16:54:00,41.8,41.0,29.66,East,101,5.0,5.0,97,0.00,OVC,,1.60,21.0,WeatherDisplay:10.37,2013-02-26 21:54:00,
2013-02-26 16:59:00,41.8,41.3,29.66,South,187,7.0,7.0,98,0.00,OVC,,1.60,16.0,WeatherDisplay:10.37,2013-02-26 21:59:00,
2013-02-26 17:04:00,41.8,41.0,29.66,SSW,212,6.9,6.9,97,0.00,CLR,,1.60,32.0,WeatherDisplay:10.37,2013-02-26 22:04:00,
2013-02-26 17:09:00,41.9,41.1,29.67,SW,214,7.0,7.0,97,0.00,BKN,,1.60,44.0,WeatherDisplay:10.37,2013-02-26 22:09:00,
2013-02-26 17:14:00,41.9,41.1,29.67,SW,225,9.2,9.2,97,0.00,BKN,,1.60,47.0,WeatherDisplay:10.37,2013-02-26 22:14:00,
2013-02-26 17:19:00,42.0,41.5,29.67,SW,227,6.9,6.9,98,0.00,BKN,,1.60,63.0,WeatherDisplay:10.37,2013-02-26 22:19:00,
2013-02-26 17:24:00,42.1,41.6,29.67,SW,232,10.4,10.4,98,0.00,BKN,,1.60,56.0,WeatherDisplay:10.37,2013-02-26 22:24:00,
2013-02-26 17:29:00,42.1,41.6,29.67,SW,232,7.0,7.0,98,0.00,BKN,,1.60,39.0,WeatherDisplay:10.37,2013-02-26 22:29:00,
2013-02-26 17:34:00,42.2,41.7,29.68,WSW,244,5.8,5.8,98,0.00,BKN,,1.60,44.0,WeatherDisplay:10.37,2013-02-26 22:34:00,
2013-02-26 17:39:00,42.3,41.8,29.68,WSW,246,9.2,9.2,98,0.00,CLR,,1.60,30.0,WeatherDisplay:10.37,2013-02-26 22:39:00,
2013-02-26 17:44:00,42.3,41.8,29.69,WSW,258,10.4,10.4,98,0.00,CLR,,1.60,12.0,WeatherDisplay:10.37,2013-02-26 22:44:00,
2013-02-26 17:49:00,42.4,41.9,29.69,West,259,6.0,6.0,98,0.00,CLR,,1.60,16.0,WeatherDisplay:10.37,2013-02-26 22:49:00,
2013-02-26 17:54:00,42.5,42.0,29.68,West,265,11.0,11.0,98,0.00,CLR,,1.60,19.0,WeatherDisplay:10.37,2013-02-26 22:54:00,
2013-02-26 17:59:00,42.7,42.2,29.69,West,271,11.5,11.5,98,0.00,CLR,,1.60,5.0,WeatherDisplay:10.37,2013-02-26 22:59:00,
2013-02-26 18:04:00,42.9,42.4,29.69,West,267,9.0,9.0,98,0.00,CLR,,1.60,11.0,WeatherDisplay:10.37,2013-02-26 23:04:00,
2013-02-26 18:09:00,43.1,42.6,29.69,West,268,10.4,10.4,98,0.00,CLR,,1.60,9.0,WeatherDisplay:10.37,2013-02-26 23:09:00,
2013-02-26 18:14:00,43.1,42.6,29.69,West,276,11.5,11.5,98,0.00,CLR,,1.60,0.0,WeatherDisplay:10.37,2013-02-26 23:14:00,
2013-02-26 18:19:00,43.3,42.8,29.70,WNW,282,11.5,11.5,98,0.00,CLR,,1.60,0.0,WeatherDisplay:10.37,2013-02-26 23:19:00,
2013-02-26 18:24:00,43.4,42.6,29.70,West,281,11.5,11.5,97,0.00,CLR,,1.60,0.0,WeatherDisplay:10.37,2013-02-26 23:24:00,
2013-02-26 18:29:00,43.6,42.5,29.71,WNW,295,15.0,15.0,96,0.00,CLR,,1.60,0.0,WeatherDisplay:10.37,2013-02-26 23:29:00,
2013-02-26 18:34:00,43.8,42.5,29.71,West,279,13.8,13.8,95,0.00,CLR,,1.60,0.0,WeatherDisplay:10.37,2013-02-26 23:34:00,
2013-02-26 18:39:00,43.8,41.9,29.72,West,277,13.8,13.8,93,0.00,CLR,,1.60,0.0,WeatherDisplay:10.37,2013-02-26 23:39:00,
2013-02-26 18:44:00,43.8,41.6,29.72,West,279,15.0,15.0,92,0.00,CLR,,1.60,0.0,WeatherDisplay:10.37,2013-02-26 23:44:00,
2013-02-26 18:49:00,43.8,41.3,29.72,West,269,11.0,11.0,91,0.00,CLR,,1.60,0.0,WeatherDisplay:10.37,2013-02-26 23:49:00,
2013-02-26 18:54:00,43.7,41.2,29.72,West,271,13.8,13.8,91,0.00,CLR,,1.60,0.0,WeatherDisplay:10.37,2013-02-26 23:54:00,
2013-02-26 18:59:00,43.7,41.2,29.72,West,281,11.5,11.5,91,0.00,CLR,,1.60,0.0,WeatherDisplay:10.37,2013-02-26 23:59:00,
2013-02-26 19:04:00,43.7,41.0,29.72,WNW,285,13.8,13.8,90,0.00,CLR,,1.60,0.0,WeatherDisplay:10.37,2013-02-27 00:04:00,
2013-02-26 19:09:00,43.6,40.9,29.73,WNW,287,15.0,15.0,90,0.00,CLR,,1.60,0.0,WeatherDisplay:10.37,2013-02-27 00:09:00,
2013-02-26 19:14:00,43.5,40.8,29.73,WNW,286,17.3,17.3,90,0.00,CLR,,1.60,0.0,WeatherDisplay:10.37,2013-02-27 00:14:00,
2013-02-26 19:19:00,43.4,40.4,29.73,WNW,288,16.1,16.1,89,0.00,CLR,,1.60,0.0,WeatherDisplay:10.37,2013-02-27 00:19:00,
2013-02-26 19:24:00,43.2,40.2,29.73,West,275,18.4,18.4,89,0.00,CLR,,1.60,0.0,WeatherDisplay:10.37,2013-02-27 00:24:00,
2013-02-26 19:29:00,42.9,39.6,29.73,West,276,13.8,13.8,88,0.00,CLR,,1.60,0.0,WeatherDisplay:10.37,2013-02-27 00:29:00,
2013-02-26 19:34:00,42.8,39.5,29.74,West,272,19.0,19.0,88,0.00,CLR,,1.60,0.0,WeatherDisplay:10.37,2013-02-27 00:34:00,
2013-02-26 19:39:00,42.7,39.4,29.73,West,266,17.0,17.0,88,0.00,CLR,,1.60,0.0,WeatherDisplay:10.37,2013-02-27 00:39:00,
2013-02-26 19:44:00,42.6,39.0,29.74,West,279,20.0,20.0,87,0.00,CLR,,1.60,0.0,WeatherDisplay:10.37,2013-02-27 00:44:00,
2013-02-26 19:49:00,42.7,39.1,29.74,West,274,18.4,18.4,87,0.00,CLR,,1.60,0.0,WeatherDisplay:10.37,2013-02-27 00:49:00,
2013-02-26 19:54:00,42.6,39.0,29.74,West,273,20.0,20.0,87,0.00,CLR,,1.60,0.0,WeatherDisplay:10.37,2013-02-27 00:54:00,
2013-02-26 19:59:00,42.5,38.9,29.74,West,260,19.6,19.6,87,0.00,CLR,,1.60,0.0,WeatherDisplay:10.37,2013-02-27 00:59:00,
2013-02-26 20:04:00,42.4,38.5,29.74,WNW,290,24.2,24.2,86,0.00,CLR,,1.60,0.0,WeatherDisplay:10.37,2013-02-27 01:04:00,
2013-02-26 20:09:00,42.2,38.0,29.74,West,273,23.0,23.0,85,0.00,CLR,,1.60,0.0,WeatherDisplay:10.37,2013-02-27 01:09:00,
2013-02-26 20:14:00,42.1,37.6,29.74,West,277,25.3,25.3,84,0.00,CLR,,1.60,0.0,WeatherDisplay:10.37,2013-02-27 01:14:00,
2013-02-26 20:19:00,42.1,37.9,29.75,West,279,27.0,27.0,85,0.00,CLR,,1.60,0.0,WeatherDisplay:10.37,2013-02-27 01:19:00,
2013-02-26 20:24:00,42.2,37.1,29.75,WSW,246,26.5,26.5,82,0.00,CLR,,1.60,0.0,WeatherDisplay:10.37,2013-02-27 01:24:00,
2013-02-26 20:29:00,42.2,37.1,29.75,WNW,286,26.5,26.5,82,0.00,CLR,,1.60,0.0,WeatherDisplay:10.37,2013-02-27 01:29:00,
2013-02-26 20:34:00,42.2,37.1,29.75,West,263,20.0,20.0,82,0.00,CLR,,1.60,0.0,WeatherDisplay:10.37,2013-02-27 01:34:00,
2013-02-26 20:39:00,42.1,37.0,29.75,West,266,18.4,18.4,82,0.00,CLR,,1.60,0.0,WeatherDisplay:10.37,2013-02-27 01:39:00,
2013-02-26 20:44:00,42.0,36.6,29.76,West,279,27.6,27.6,81,0.00,CLR,,1.60,0.0,WeatherDisplay:10.37,2013-02-27 01:44:00,
2013-02-26 20:49:00,42.0,36.6,29.75,WNW,285,25.3,25.3,81,0.00,CLR,,1.60,0.0,WeatherDisplay:10.37,2013-02-27 01:49:00,
2013-02-26 20:54:00,42.0,36.3,29.76,WNW,288,19.6,19.6,80,0.00,CLR,,1.60,0.0,WeatherDisplay:10.37,2013-02-27 01:54:00,
2013-02-26 20:59:00,41.9,36.5,29.76,West,268,15.0,15.0,81,0.00,CLR,,1.60,0.0,WeatherDisplay:10.37,2013-02-27 01:59:00,
2013-02-26 21:04:00,41.6,36.2,29.77,West,274,23.0,23.0,81,0.00,CLR,,1.60,0.0,WeatherDisplay:10.37,2013-02-27 02:04:00,
2013-02-26 21:16:00,41.6,36.8,29.77,WNW,286,13.8,13.8,83,0.00,CLR,,1.60,0.0,WeatherDisplay:10.37,2013-02-27 02:16:00,
2013-02-26 21:21:00,41.6,36.8,29.77,WNW,298,15.0,15.0,83,0.00,CLR,,1.60,0.0,WeatherDisplay:10.37,2013-02-27 02:21:00,
2013-02-26 21:26:00,41.5,36.7,29.77,West,281,19.6,19.6,83,0.00,CLR,,1.60,0.0,WeatherDisplay:10.37,2013-02-27 02:26:00,
2013-02-26 21:31:00,41.6,36.8,29.77,WNW,283,23.0,23.0,83,0.00,CLR,,1.60,0.0,WeatherDisplay:10.37,2013-02-27 02:31:00,
2013-02-26 21:36:00,41.7,36.9,29.78,West,277,17.3,17.3,83,0.00,CLR,,1.60,0.0,WeatherDisplay:10.37,2013-02-27 02:36:00,
2013-02-26 21:41:00,41.7,36.9,29.78,West,268,16.1,16.1,83,0.00,CLR,,1.60,0.0,WeatherDisplay:10.37,2013-02-27 02:41:00,
2013-02-26 21:46:00,41.5,37.0,29.78,West,272,13.8,13.8,84,0.00,CLR,,1.60,0.0,WeatherDisplay:10.37,2013-02-27 02:46:00,
2013-02-26 21:51:00,41.4,36.9,29.78,West,274,16.1,16.1,84,0.00,CLR,,1.60,0.0,WeatherDisplay:10.37,2013-02-27 02:51:00,
2013-02-26 21:56:00,41.5,37.0,29.78,West,259,14.0,14.0,84,0.00,CLR,,1.60,0.0,WeatherDisplay:10.37,2013-02-27 02:56:00,
2013-02-26 22:01:00,41.5,37.3,29.78,WNW,282,13.8,13.8,85,0.00,CLR,,1.60,0.0,WeatherDisplay:10.37,2013-02-27 03:01:00,
2013-02-26 22:06:00,41.4,37.2,29.78,West,278,16.1,16.1,85,0.00,CLR,,1.60,0.0,WeatherDisplay:10.37,2013-02-27 03:06:00,
2013-02-26 22:11:00,41.3,37.1,29.79,West,271,16.1,16.1,85,0.00,CLR,,1.60,0.0,WeatherDisplay:10.37,2013-02-27 03:11:00,
2013-02-26 22:16:00,41.2,37.0,29.79,West,275,19.0,19.0,85,0.00,CLR,,1.60,0.0,WeatherDisplay:10.37,2013-02-27 03:16:00,
2013-02-26 22:21:00,41.2,37.3,29.79,West,273,18.4,18.4,86,0.00,CLR,,1.60,0.0,WeatherDisplay:10.37,2013-02-27 03:21:00,
2013-02-26 22:26:00,41.1,37.2,29.79,WNW,302,19.6,19.6,86,0.00,CLR,,1.60,0.0,WeatherDisplay:10.37,2013-02-27 03:26:00,
2013-02-26 22:31:00,41.1,36.9,29.78,West,281,20.7,20.7,85,0.00,CLR,,1.60,0.0,WeatherDisplay:10.37,2013-02-27 03:31:00,
2013-02-26 22:36:00,41.1,37.2,29.79,WSW,251,18.4,18.4,86,0.00,CLR,,1.60,0.0,WeatherDisplay:10.37,2013-02-27 03:36:00,
2013-02-26 22:41:00,41.0,37.1,29.78,West,276,17.0,17.0,86,0.00,CLR,,1.60,0.0,WeatherDisplay:10.37,2013-02-27 03:41:00,
2013-02-26 22:46:00,41.0,37.1,29.79,WSW,246,19.6,19.6,86,0.00,CLR,,1.60,0.0,WeatherDisplay:10.37,2013-02-27 03:46:00,
2013-02-26 22:51:00,41.1,37.2,29.79,West,279,26.0,26.0,86,0.00,CLR,,1.60,0.0,WeatherDisplay:10.37,2013-02-27 03:51:00,
2013-02-26 22:56:00,41.1,36.9,29.80,West,273,19.6,19.6,85,0.00,CLR,,1.60,0.0,WeatherDisplay:10.37,2013-02-27 03:56:00,
2013-02-26 23:01:00,41.0,36.8,29.80,West,269,26.5,26.5,85,0.00,CLR,,1.60,0.0,WeatherDisplay:10.37,2013-02-27 04:01:00,
2013-02-26 23:06:00,40.9,36.7,29.80,West,262,19.6,19.6,85,0.00,CLR,,1.60,0.0,WeatherDisplay:10.37,2013-02-27 04:06:00,
2013-02-26 23:11:00,40.8,36.6,29.79,West,269,17.3,17.3,85,0.00,CLR,,1.60,0.0,WeatherDisplay:10.37,2013-02-27 04:11:00,
2013-02-26 23:16:00,40.7,36.8,29.80,West,276,17.3,17.3,86,0.00,CLR,,1.60,0.0,WeatherDisplay:10.37,2013-02-27 04:16:00,
2013-02-26 23:21:00,40.6,36.7,29.80,West,265,18.4,18.4,86,0.00,CLR,,1.60,0.0,WeatherDisplay:10.37,2013-02-27 04:21:00,
2013-02-26 23:26:00,40.5,36.9,29.79,West,262,16.1,16.1,87,0.00,CLR,,1.60,0.0,WeatherDisplay:10.37,2013-02-27 04:26:00,
2013-02-26 23:31:00,40.4,37.1,29.80,West,280,15.0,15.0,88,0.00,CLR,,1.60,0.0,WeatherDisplay:10.37,2013-02-27 04:31:00,
2013-02-26 23:36:00,40.1,37.1,29.80,WNW,294,18.4,18.4,89,0.00,CLR,,1.60,0.0,WeatherDisplay:10.37,2013-02-27 04:36:00,
2013-02-26 23:41:00,40.0,37.0,29.80,West,264,15.0,15.0,89,0.00,CLR,,1.60,0.0,WeatherDisplay:10.37,2013-02-27 04:41:00,
2013-02-26 23:46:00,39.8,37.1,29.79,West,271,16.1,16.1,90,0.00,CLR,,1.60,0.0,WeatherDisplay:10.37,2013-02-27 04:46:00,
2013-02-26 23:51:00,39.8,36.8,29.80,West,269,21.9,21.9,89,0.00,CLR,,1.60,0.0,WeatherDisplay:10.37,2013-02-27 04:51:00,
2013-02-26 23:56:00,39.8,36.8,29.80,West,281,19.6,19.6,89,0.00,CLR,,1.60,0.0,WeatherDisplay:10.37,2013-02-27 04:56:00,